Date,TemperatureHighF,TemperatureAvgF,TemperatureLowF,DewpointHighF,DewpointAvgF,DewpointLowF,HumidityHigh,HumidityAvg,HumidityLow,PressureMaxIn,PressureMinIn,WindSpeedMaxMPH,WindSpeedAvgMPH,GustSpeedMaxMPH,PrecipitationSumIn
2013-7-1,78.5,72.5,70.1,73.2,71.3,69.0,100,96,81,30.04,29.88,23,1,23,0.10
2013-7-2,79.6,68.8,59.9,73.6,66.8,59.3,100,94,74,30.15,30.03,11,1,11,0.01
2013-7-3,88.2,73.9,59.6,72.1,66.9,59.6,100,81,56,30.14,30.07,15,1,16,0.00
2013-7-4,92.3,83.1,73.7,74.2,71.8,69.8,93,71,49,30.13,30.04,13,2,13,0.00
2013-7-5,93.8,84.5,76.3,74.4,72.1,69.0,85,68,47,30.09,29.98,12,2,12,0.00
2013-7-6,89.3,82.5,75.8,73.3,68.8,62.0,86,65,46,30.01,29.92,17,4,19,0.00
2013-7-7,90.1,79.3,72.7,75.0,67.0,60.1,94,68,43,29.95,29.84,13,2,13,0.07
2013-7-8,83.0,73.4,65.0,75.0,69.2,62.5,99,87,71,30.00,29.84,12,2,12,0.00
2013-7-9,72.7,66.8,64.7,65.6,64.0,62.8,99,91,78,30.04,29.98,9,1,9,0.00
2013-7-10,82.8,72.5,65.8,73.6,69.4,63.9,100,91,69,30.01,29.73,13,1,14,0.00
2013-7-11,81.6,76.1,71.5,74.1,71.7,67.9,95,86,67,29.86,29.70,13,1,13,0.04
2013-7-12,74.2,69.2,66.0,69.5,61.4,57.0,98,77,59,30.14,29.86,19,3,19,0.00
2013-7-13,73.2,68.5,65.5,67.2,64.5,61.0,98,87,76,30.26,30.14,10,1,10,0.00
2013-7-14,87.4,76.1,67.4,73.9,70.7,67.0,100,85,53,30.24,30.15,12,1,12,0.00
2013-7-15,89.9,79.8,73.2,73.1,70.1,65.6,97,74,52,30.15,30.04,11,1,11,0.00
2013-7-16,91.2,79.5,72.8,72.0,68.3,65.7,83,69,47,30.11,30.04,12,1,12,0.00
2013-7-17,85.3,78.8,70.9,73.0,70.4,66.2,95,76,63,30.11,29.93,15,1,15,0.00
2013-7-18,86.7,79.3,74.7,73.2,70.8,66.5,88,76,57,29.96,29.89,16,2,16,0.00
2013-7-19,96.1,86.0,74.2,76.6,72.3,66.5,93,67,40,29.89,29.66,18,2,18,0.00
2013-7-20,91.6,83.8,76.7,75.6,71.7,63.3,83,68,50,29.74,29.59,27,2,28,0.00
2013-7-21,76.5,72.9,69.8,68.8,64.3,59.1,95,75,59,29.93,29.74,13,2,13,0.00
2013-7-22,75.3,70.7,67.6,70.3,67.7,64.8,100,91,73,29.96,29.83,13,1,13,0.00
2013-7-23,78.3,71.6,68.4,76.4,71.3,68.1,100,99,84,29.83,29.48,12,1,12,0.70
2013-7-24,83.8,75.7,67.6,76.3,66.9,52.6,100,76,53,29.89,29.52,17,3,17,0.00
2013-7-25,67.4,61.8,59.9,61.2,55.6,51.0,100,81,61,30.03,29.89,17,3,17,0.20
2013-7-26,70.3,65.0,61.2,67.8,63.8,61.2,100,96,82,29.98,29.84,18,4,18,1.26
2013-7-27,81.6,71.1,62.4,67.8,63.7,59.4,94,78,59,29.98,29.91,12,1,12,0.00
2013-7-28,72.7,68.1,65.5,69.4,66.9,64.2,100,96,84,29.96,29.92,13,1,13,0.04
2013-7-29,75.8,69.8,65.8,71.5,68.1,65.8,100,95,73,29.98,29.91,13,1,13,0.08
2013-7-30,79.4,70.6,65.2,68.3,63.1,55.3,100,79,46,30.02,29.97,14,3,14,0.01
2013-7-31,78.6,70.7,63.9,66.0,61.0,55.3,89,72,47,30.05,29.98,11,2,12,0.00